When you browse on this site, cookies collect data to enhance your experience and personalize the content and advertising you see.
Visit our Privacy Policy to learn more. By continuing to use the site, you agree to this use of cookies and data.
  • In Portugal
  • List of Countries
  • For 7 days
  • Water Temperature
  • Weather Map
  • Weather Widgets
  • user-avatar
    Login

    Hourly Weather Soro

    Today, 6 December, Friday

    Time Temperature Precipitation Wind Pressure Humidity
    00:00 +2°C° 0.2 mm 12 mps 749 mmHg 82%
    01:00 +1°C° 0.2 mm 13 mps 749 mmHg 83%
    02:00 +3°C° 0.3 mm 13 mps 748 mmHg 84%
    03:00 +3°C° 0.3 mm 13 mps 747 mmHg 86%
    04:00 +4°C° 0.3 mm 13 mps 746 mmHg 87%
    05:00 +5°C° 0.3 mm 13 mps 746 mmHg 88%
    06:00 +5°C° 0.3 mm 13 mps 746 mmHg 88%
    07:00 +7°C° 0.3 mm 12 mps 746 mmHg 89%
    08:00 +7°C° 0.1 mm 12 mps 746 mmHg 89%
    09:00 +7°C° 0.1 mm 11 mps 746 mmHg 89%
    10:00 +7°C° 0.1 mm 11 mps 746 mmHg 89%
    11:00 +7°C° 0 mm 10 mps 746 mmHg 89%
    12:00 +7°C° 0 mm 10 mps 746 mmHg 90%
    13:00 +7°C° 0 mm 10 mps 746 mmHg 90%
    14:00 +7°C° 0.1 mm 10 mps 745 mmHg 90%
    15:00 +6°C° 0.1 mm 10 mps 745 mmHg 90%
    16:00 +6°C° 0.1 mm 10 mps 744 mmHg 90%
    17:00 +6°C° 0.2 mm 10 mps 744 mmHg 90%
    18:00 +6°C° 0.2 mm 10 mps 744 mmHg 89%
    19:00 +6°C° 0.2 mm 10 mps 744 mmHg 89%
    20:00 +6°C° 0.1 mm 10 mps 743 mmHg 89%
    21:00 +6°C° 0.1 mm 10 mps 743 mmHg 90%
    22:00 +6°C° 0.1 mm 10 mps 743 mmHg 90%
    23:00 +6°C° 0.2 mm 9 mps 742 mmHg 90%

    Tomorrow, 7 December, Saturday

    Time Temperature Precipitation Wind Pressure Humidity
    00:00 +6°C° 0.2 mm 9 mps 742 mmHg 90%
    01:00 +6°C° 0.2 mm 9 mps 742 mmHg 90%
    02:00 +6°C° 0.2 mm 8 mps 742 mmHg 91%
    03:00 +6°C° 0.2 mm 8 mps 741 mmHg 92%
    04:00 +6°C° 0.2 mm 7 mps 741 mmHg 93%
    05:00 +6°C° 0 mm 7 mps 741 mmHg 92%
    06:00 +6°C° 0 mm 7 mps 742 mmHg 90%
    07:00 +6°C° 0 mm 7 mps 742 mmHg 88%
    08:00 +6°C° 0 mm 7 mps 743 mmHg 87%
    09:00 +6°C° 0 mm 7 mps 744 mmHg 86%
    10:00 +5°C° 0 mm 7 mps 744 mmHg 85%
    11:00 +5°C° 0 mm 7 mps 745 mmHg 81%
    12:00 +5°C° 0 mm 7 mps 745 mmHg 76%
    13:00 +5°C° 0 mm 7 mps 746 mmHg 72%
    14:00 +5°C° 0 mm 7 mps 746 mmHg 71%
    15:00 +4°C° 0 mm 7 mps 746 mmHg 70%
    16:00 +4°C° 0 mm 7 mps 746 mmHg 70%
    17:00 +3°C° 0 mm 7 mps 747 mmHg 71%
    18:00 +3°C° 0 mm 7 mps 747 mmHg 73%
    19:00 +3°C° 0 mm 6 mps 748 mmHg 74%
    20:00 +3°C° 0 mm 6 mps 748 mmHg 77%
    21:00 +3°C° 0 mm 7 mps 747 mmHg 81%
    22:00 +3°C° 0 mm 7 mps 747 mmHg 84%
    23:00 +3°C° 0 mm 7 mps 747 mmHg 86%

    Day after tomorrow, 8 December, Sunday

    Time Temperature Precipitation Wind Pressure Humidity
    00:00 +4°C° 0 mm 6 mps 747 mmHg 87%
    01:00 +5°C° 0 mm 5 mps 747 mmHg 89%
    02:00 +5°C° 0 mm 5 mps 747 mmHg 90%
    03:00 +5°C° 0 mm 5 mps 746 mmHg 91%
    04:00 +5°C° 0 mm 5 mps 746 mmHg 93%
    05:00 +4°C° 0.4 mm 6 mps 745 mmHg 91%
    06:00 +4°C° 0.4 mm 8 mps 744 mmHg 90%
    07:00 +5°C° 0.4 mm 9 mps 743 mmHg 89%
    08:00 +5°C° 1 mm 10 mps 742 mmHg 90%
    09:00 +4°C° 1 mm 11 mps 740 mmHg 90%
    10:00 +4°C° 1 mm 11 mps 739 mmHg 90%
    11:00 +4°C° 0.6 mm 12 mps 739 mmHg 90%
    12:00 +5°C° 0.6 mm 12 mps 738 mmHg 89%
    13:00 +5°C° 0.6 mm 12 mps 737 mmHg 88%
    14:00 +6°C° 0.2 mm 11 mps 737 mmHg 84%
    15:00 +6°C° 0.2 mm 10 mps 737 mmHg 80%
    16:00 +5°C° 0.2 mm 8 mps 737 mmHg 75%
    17:00 +5°C° 0 mm 8 mps 737 mmHg 76%
    18:00 +5°C° 0 mm 8 mps 737 mmHg 77%
    19:00 +4°C° 0 mm 8 mps 737 mmHg 78%
    20:00 +4°C° 0.2 mm 8 mps 737 mmHg 78%
    21:00 +3°C° 0.2 mm 9 mps 737 mmHg 78%
    22:00 +5°C° 0.2 mm 9 mps 737 mmHg 78%
    23:00 +3°C° 0.1 mm 9 mps 736 mmHg 78%

    9 December, Monday

    Time Temperature Precipitation Wind Pressure Humidity
    00:00 +3°C° 0.1 mm 9 mps 736 mmHg 79%
    01:00 +3°C° 0.1 mm 9 mps 736 mmHg 79%
    02:00 +3°C° 0.2 mm 9 mps 736 mmHg 79%
    03:00 +4°C° 0.2 mm 8 mps 735 mmHg 79%
    04:00 +2°C° 0.2 mm 8 mps 735 mmHg 79%
    05:00 +2°C° 0 mm 8 mps 735 mmHg 80%
    06:00 +3°C° 0 mm 7 mps 735 mmHg 81%
    07:00 +3°C° 0 mm 7 mps 735 mmHg 82%
    08:00 +3°C° 0.3 mm 7 mps 735 mmHg 84%
    09:00 +3°C° 0.3 mm 7 mps 735 mmHg 86%
    10:00 +3°C° 0.3 mm 6 mps 735 mmHg 87%
    11:00 +3°C° 0.4 mm 6 mps 735 mmHg 87%
    12:00 +3°C° 0.4 mm 6 mps 735 mmHg 87%
    13:00 +5°C° 0.4 mm 5 mps 735 mmHg 87%
    14:00 +3°C° 0.1 mm 5 mps 735 mmHg 88%
    15:00 +4°C° 0.1 mm 4 mps 736 mmHg 89%
    16:00 +4°C° 0.1 mm 4 mps 736 mmHg 90%
    17:00 +4°C° 0.1 mm 3 mps 737 mmHg 90%
    18:00 +4°C° 0.1 mm 3 mps 737 mmHg 91%
    19:00 +4°C° 0.1 mm 3 mps 738 mmHg 92%
    20:00 +3°C° 0 mm 3 mps 739 mmHg 92%
    21:00 +3°C° 0 mm 4 mps 740 mmHg 92%
    22:00 +2°C° 0 mm 5 mps 741 mmHg 92%
    23:00 +2°C° 0 mm 6 mps 742 mmHg 91%

    10 December, Tuesday

    Time Temperature Precipitation Wind Pressure Humidity
    00:00 +2°C° 0 mm 7 mps 743 mmHg 90%
    01:00 +1°C° 0 mm 9 mps 744 mmHg 88%
    02:00 0°C° 0 mm 9 mps 746 mmHg 82%
    03:00 0°C° 0 mm 9 mps 747 mmHg 76%
    04:00 -2°C° 0 mm 10 mps 749 mmHg 69%
    05:00 -1°C° 0 mm 9 mps 750 mmHg 65%
    06:00 -1°C° 0 mm 8 mps 751 mmHg 61%
    07:00 -2°C° 0 mm 7 mps 753 mmHg 56%
    08:00 -2°C° 0 mm 7 mps 754 mmHg 58%
    09:00 -2°C° 0 mm 6 mps 755 mmHg 60%
    10:00 0°C° 0 mm 5 mps 756 mmHg 62%
    11:00 0°C° 0 mm 4 mps 756 mmHg 60%
    12:00 +1°C° 0 mm 3 mps 757 mmHg 57%
    13:00 +3°C° 0 mm 2 mps 757 mmHg 55%
    14:00 +2°C° 0 mm 2 mps 757 mmHg 57%
    15:00 +2°C° 0 mm 2 mps 757 mmHg 59%
    16:00 +1°C° 0 mm 2 mps 757 mmHg 60%
    17:00 0°C° 0 mm 3 mps 757 mmHg 62%
    18:00 0°C° 0 mm 3 mps 757 mmHg 65%
    19:00 -1°C° 0 mm 4 mps 756 mmHg 67%
    20:00 0°C° 0 mm 5 mps 756 mmHg 64%
    21:00 -1°C° 0 mm 7 mps 755 mmHg 61%
    22:00 -1°C° 0 mm 8 mps 754 mmHg 58%
    23:00 -1°C° 0 mm 9 mps 753 mmHg 61%

    11 December, Wednesday

    Time Temperature Precipitation Wind Pressure Humidity
    00:00 0°C° 0 mm 9 mps 752 mmHg 64%
    01:00 0°C° 0 mm 10 mps 751 mmHg 67%
    02:00 -2°C° 0.5 mm 11 mps 749 mmHg 76%
    03:00 -2°C° 0.5 mm 11 mps 748 mmHg 86%
    04:00 -3°C° 0.5 mm 12 mps 746 mmHg 95%
    05:00 -2°C° 1.2 mm 11 mps 746 mmHg 93%
    06:00 +1°C° 1.2 mm 10 mps 745 mmHg 92%
    07:00 +2°C° 1.2 mm 9 mps 744 mmHg 91%
    08:00 +2°C° 0.1 mm 8 mps 744 mmHg 88%
    09:00 +2°C° 0.1 mm 8 mps 744 mmHg 85%
    10:00 +3°C° 0.1 mm 7 mps 745 mmHg 82%
    11:00 +4°C° 0.1 mm 7 mps 744 mmHg 81%
    12:00 +4°C° 0.1 mm 7 mps 744 mmHg 79%
    13:00 +4°C° 0.1 mm 7 mps 744 mmHg 78%
    14:00 +4°C° 0.3 mm 7 mps 744 mmHg 80%
    15:00 +2°C° 0.3 mm 8 mps 744 mmHg 83%
    16:00 +2°C° 0.3 mm 8 mps 744 mmHg 86%
    17:00 +2°C° 0.1 mm 8 mps 744 mmHg 84%
    18:00 +2°C° 0.1 mm 8 mps 743 mmHg 82%
    19:00 +1°C° 0.1 mm 8 mps 743 mmHg 81%
    20:00 +1°C° 0.2 mm 9 mps 742 mmHg 83%
    21:00 +1°C° 0.2 mm 10 mps 741 mmHg 85%
    22:00 +1°C° 0.2 mm 10 mps 740 mmHg 86%
    23:00 +1°C° 0.6 mm 11 mps 739 mmHg 85%
    Show more